User: anonymous   Login
Location: Unspecified
(50.7693°N, 0.0000°E)
Time: 19:09:49
(UTC+00:00)
Language:

Courier 1B Rocket - Orbit

View from above orbital plane
View from above orbital plane
View from above satellite
View from above satellite

Ground track
Ground track

The orbit data is extracted from the following two-line orbital elements,

1    59U 60013B   20220.52819470 +.00000102 +00000-0 +21498-4 0  9997
2    59 028.2496 315.8497 0189303 354.8625 004.9987 13.52978274953520
Epoch (UTC): 07 August 2020 12:40:36
Eccentricity: 0.0189303
inclination: 28.2496°
perigee height: 920 km
apogee height: 1202 km
right ascension of ascending node: 315.8497°
argument of perigee: 354.8625°
revolutions per day: 13.52978274
mean anomaly at epoch: 4.9987°
orbit number at epoch: 95352

The dashed part of the orbit path shows where the satellite is in the earth's shadow,  

DLR